Christmas Island, Christmas Island

8:37 PM CXT on February 24, 2017 (GMT +0700)
Christmas Island

Weather History for YPXM - October, 2012

Change the Weather History Date:

Thursday, October 4, 2012

  Actual Average Record
Temperature  
Mean Temperature 76 °F -  
Max Temperature 79 °F 76 °F 81 °F (2013)
Min Temperature 73 °F 71 °F 68 °F (2004)
Cooling Degree Days 11    
Growing Degree Days 26 (Base 50)    
Moisture  
Dew Point 69 °F    
Average Humidity 80    
Maximum Humidity 88    
Minimum Humidity 62    
Precipitation  
Precipitation 0.00 in - - ()
Sea Level Pressure  
Sea Level Pressure 29.94 in    
Wind  
Wind Speed 10 mph ()    
Max Wind Speed 16 mph    
Max Gust Speed -    
Visibility 6.2 miles    
Events      
Averages and records for this station are not official NWS values.
T = Trace of Precipitation, MM = Missing Value Source: Averaged Metar Reports

Daily Weather History Graph

Daily Weather History Graph

Search for Another Location

Airport or City:

Trip Planner

Search our weather history database for the weather conditions in past years. The results will help you decide how hot, cold, wet, or windy it might be!

Date:

Astronomy

Oct. 04, 2012 Rise Set
Actual Time 5:39 AM CXT 5:52 PM CXT
Civil Twilight 5:18 AM CXT 6:13 PM CXT
Nautical Twilight 4:53 AM CXT 6:38 PM CXT
Astronomical Twilight 4:29 AM CXT 7:02 PM CXT
Moon 9:15 PM CXT (10/4) 8:19 AM CXT (10/4)
Length of Visible Light 12h 55m
Length of Day
12h 13m
Waning Gibbous, 85% of the Moon is Illuminated
Oct 4
Waning Gibbous
Oct 8
Last Quarter
Oct 15
New
Oct 22
First Quarter
Oct 30
Full

Hourly Weather History & Observations

Time (CXT) Temp. Dew Point Humidity Pressure Visibility Wind Dir Wind Speed Gust Speed Precip Events Conditions
12:00 AM 74 °F 69 °F 81% 29.93 in - SE 10.4 mph - -   Overcast
12:00 AM 73.4 °F 69.8 °F 88% 29.95 in 6.2 mi SE 10.4 mph - N/A   Overcast
1:00 AM 74 °F 70 °F 82% 29.91 in - SE 11.5 mph - -  
1:00 AM 73.4 °F 69.8 °F 88% 29.95 in 6.2 mi SE 11.5 mph - N/A   Overcast
2:00 AM 73.4 °F 69.8 °F 88% 29.95 in 6.2 mi SE 8.1 mph - N/A   Overcast
3:00 AM 74 °F 69 °F 79% 29.90 in - SE 10.4 mph - -   Overcast
3:00 AM 73.4 °F 69.8 °F 88% 29.92 in 6.2 mi SE 10.4 mph - N/A   Overcast
3:23 AM 73.4 °F 69.8 °F 88% 29.92 in 6.2 mi ESE 10.4 mph - N/A   Overcast
3:30 AM 73.4 °F 69.8 °F 88% 29.92 in 6.2 mi SE 10.4 mph - N/A   Overcast
4:00 AM 73 °F 69 °F 82% 29.91 in - SE 9.2 mph - -  
4:00 AM 73.4 °F 68.0 °F 83% 29.95 in 6.2 mi SE 9.2 mph - N/A   Overcast
5:00 AM 73.4 °F 68.0 °F 83% 29.95 in 6.2 mi SE 10.4 mph - N/A   Overcast
5:24 AM 73.4 °F 68.0 °F 83% 29.95 in 6.2 mi ESE 10.4 mph - N/A   Overcast
5:31 AM 73.4 °F 69.8 °F 88% 29.95 in 6.2 mi ESE 10.4 mph - N/A   Overcast
6:00 AM 74 °F 68 °F 76% 29.93 in - ESE 9.2 mph - -   Overcast
6:00 AM 73.4 °F 68.0 °F 83% 29.95 in 6.2 mi ESE 9.2 mph - N/A   Overcast
6:13 AM 73.4 °F 69.8 °F 88% 29.95 in 6.2 mi ESE 9.2 mph - N/A   Overcast
6:15 AM 73.4 °F 69.8 °F 88% 29.98 in 6.2 mi ESE 9.2 mph - N/A   Overcast
6:31 AM 73.4 °F 68.0 °F 83% 29.98 in 6.2 mi ESE 10.4 mph - N/A   Overcast
7:00 AM 75.2 °F 68.0 °F 78% 29.98 in 6.2 mi SE 10.4 mph - N/A   Overcast
8:00 AM 75.2 °F 69.8 °F 83% 29.98 in 6.2 mi ESE 11.5 mph - N/A   Overcast
9:00 AM 75 °F 69 °F 77% 29.95 in - ESE 12.7 mph - -  
9:00 AM 75.2 °F 69.8 °F 83% 29.98 in 6.2 mi ESE 12.7 mph - N/A   Overcast
10:00 AM 77 °F 68 °F 67% 29.95 in - SE 12.7 mph - -  
10:00 AM 77.0 °F 68.0 °F 74% 29.98 in 6.2 mi SE 12.7 mph - N/A   Overcast
10:59 AM 78.8 °F 68.0 °F 69% 29.98 in 6.2 mi ESE 12.7 mph - N/A   Overcast
11:00 AM 78.8 °F 68.0 °F 69% 29.98 in 6.2 mi ESE 12.7 mph - N/A   Overcast
12:00 PM 78 °F 69 °F 66% 29.93 in - ESE 15.0 mph - -   Overcast
12:00 PM 78.8 °F 68.0 °F 69% 29.95 in 6.2 mi ESE 15.0 mph - N/A   Overcast
1:00 PM 77 °F 68 °F 66% 29.90 in - ESE 16.1 mph - -  
1:00 PM 77.0 °F 68.0 °F 74% 29.95 in 6.2 mi ESE 16.1 mph - N/A   Mostly Cloudy
2:00 PM 77.0 °F 68.0 °F 74% 29.92 in 6.2 mi ESE 13.8 mph - N/A   Mostly Cloudy
2:22 PM 77.0 °F 69.8 °F 78% 29.92 in 6.2 mi ESE 15.0 mph - N/A   Scattered Clouds
3:00 PM 78 °F 67 °F 62% 29.87 in - SE 12.7 mph - -  
3:00 PM 78.8 °F 68.0 °F 69% 29.89 in 6.2 mi SE 12.7 mph - N/A   Mostly Cloudy
4:00 PM 77 °F 67 °F 65% 29.86 in - ESE 12.7 mph - -  
4:00 PM 77.0 °F 68.0 °F 74% 29.89 in 6.2 mi ESE 12.7 mph - N/A   Scattered Clouds
4:16 PM 77.0 °F 69.8 °F 78% 29.89 in 6.2 mi ESE 12.7 mph - N/A   Mostly Cloudy
5:00 PM 75.2 °F 69.8 °F 83% 29.89 in 6.2 mi SE 11.5 mph - N/A   Overcast
6:00 PM 74 °F 69 °F 79% 29.88 in - SE 10.4 mph - -  
6:00 PM 75.2 °F 69.8 °F 83% 29.92 in 6.2 mi SE 10.4 mph - N/A   Mostly Cloudy
7:00 PM 74 °F 70 °F 82% 29.89 in - SE 11.5 mph - -  
7:00 PM 73.4 °F 69.8 °F 88% 29.92 in 6.2 mi SE 11.5 mph - N/A   Mostly Cloudy
8:00 PM 73.4 °F 69.8 °F 88% 29.95 in 6.2 mi SE 11.5 mph - N/A   Mostly Cloudy
8:27 PM 73.4 °F 69.8 °F 88% 29.95 in 6.2 mi SE 12.7 mph - N/A   Mostly Cloudy
8:31 PM 73.4 °F 69.8 °F 88% 29.95 in 6.2 mi SE 13.8 mph - N/A   Mostly Cloudy
9:00 PM 74 °F 70 °F 85% 29.91 in - SE 12.7 mph - -   Overcast
9:00 PM 73.4 °F 69.8 °F 88% 29.95 in 6.2 mi SE 12.7 mph - N/A   Overcast
10:00 PM 73.4 °F 69.8 °F 88% 29.98 in 6.2 mi SE 10.4 mph - N/A   Mostly Cloudy
10:56 PM 73.4 °F 69.8 °F 88% 29.95 in 6.2 mi SE 12.7 mph - N/A   Mostly Cloudy
11:05 PM 73.4 °F 69.8 °F 88% 29.95 in 6.2 mi SE 12.7 mph - N/A   Mostly Cloudy
11:16 PM 73.4 °F 69.8 °F 88% 29.95 in 6.2 mi SE 12.7 mph - N/A   Scattered Clouds